CAPE
0 0 0 0 0 0 0 0 0 0 0 0 0 0 0 0 0 0 0 0 0 0 0 0 0 0 0 0 0 0 0 0 0 0 0 0 0 0 0 0 0 0 0 0
0 0 0 0 0 0 0 0 0 0 0 0 0 0 0 0 0 0 0 0 0 0 0 0 0 0 0 0 0 0 0 0 0 0 0 0 0 0 0 0 0 0 0 0
0 0 0 0 0 0 0 0 0 0 0 0 0 0 0 0 0 0 0 0 0 0 0 0 0 0 0 0 0 0 0 0 0 0 0 0 0 0 0 0 0 0 0 0
0 0 0 0 0 0 0 0 0 0 0 0 0 0 0 0 0 0 0 0 0 0 0 0 0 0 0 0 0 0 0 0 0 0 0 0 0 0 0 0 0 0 0 0
0 0 0 0 0 0 0 0 0 0 0 0 0 0 0 0 0 0 0 0 0 0 0 0 0 0 0 0 0 0 0 0 0 0 0 0 0 0 0 0 0 0 0 0
0 0 0 0 0 0 0 0 0 0 0 0 0 0 0 0 0 0 0 0 0 0 0 0 0 0 0 0 0 0 0 0 0 0 0 0 0 0 0 0 0 0 0 0
0 0 0 0 0 0 0 0 0 0 0 0 0 0 0 0 0 0 0 0 0 0 0 0 0 0 0 0 0 0 0 0 0 0 0 0 0 0 0 0 1 2 1 5
0 0 0 0 0 0 0 0 0 0 0 0 0 0 0 0 0 0 0 0 0 0 0 0 0 0 0 0 0 0 0 0 0 0 0 0 0 0 0 0 2 3 2 0
0 0 0 0 0 0 0 0 0 0 0 0 0 0 0 0 0 0 0 0 0 0 0 0 0 0 0 0 0 0 0 0 0 0 0 1 0 1 1 0 0 2 1 1
0 0 0 0 0 0 0 0 0 0 0 0 0 0 0 0 0 0 0 0 0 0 0 0 0 0 0 0 0 0 0 0 1 0 0 1 1 1 2 1 0 1 4 1
0 0 0 0 0 0 0 0 0 0 0 0 0 0 0 0 0 0 0 0 0 0 0 0 0 0 0 0 0 0 0 1 0 1 1 1 1 1 1 1 0 0 1 4
0 0 0 0 0 0 0 0 0 0 0 0 0 0 0 0 0 0 0 0 0 0 0 0 0 0 0 0 0 0 1 0 1 1 1 1 1 1 1 1 1 1 0 0
0 0 0 0 0 0 0 0 0 0 0 0 0 0 0 0 0 0 0 0 0 0 0 0 0 0 0 0 0 0 1 1 1 1 1 1 1 1 1 1 1 1 0 0
0 0 0 0 0 0 0 0 0 0 0 0 0 0 0 0 0 0 0 0 0 0 0 0 0 0 0 0 0 0 1 1 1 1 1 1 0 1 0 0 0 0 0 1
0 0 0 0 0 0 0 0 0 0 0 0 0 0 0 0 0 0 0 0 0 0 0 0 0 0 0 0 0 0 0 0 1 1 0 1 0 0 0 0 1 1 1 1
0 0 0 0 0 0 0 0 0 0 0 0 0 0 0 0 0 0 0 0 0 0 0 0 0 0 0 0 0 0 0 1 0 0 0 0 0 0 1 0 1 1 1 1
0 0 0 0 0 0 0 0 0 0 0 0 0 0 0 0 0 0 0 0 0 0 0 0 0 0 0 0 0 0 0 1 0 0 0 0 0 1 1 0 0 0 2 2
0 0 0 0 0 0 0 0 0 0 0 0 0 0 0 0 0 0 0 0 0 0 0 0 0 0 0 0 0 0 0 0 0 0 0 0 0 0 0 0 0 0 0 0
0 0 0 0 0 0 0 0 0 0 0 0 0 0 0 0 0 0 0 0 0 0 0 0 0 0 0 0 0 0 0 0 1 1 1 0 0 0 0 0 0 0 0 0
0 0 0 0 0 0 0 0 0 0 0 0 0 0 0 0 0 0 0 0 0 0 0 0 0 0 0 0 0 0 0 0 0 0 1 0 0 0 0 0 0 0 0 0
0 0 0 0 0 0 0 0 0 0 0 0 0 0 0 0 0 0 0 0 0 0 0 0 0 0 0 0 0 0 0 0 0 0 0 0 1 0 1 0 0 0 0 0
0 0 0 0 0 0 0 0 0 0 0 0 0 0 0 0 0 0 0 0 0 0 0 0 0 0 0 0 0 0 0 0 0 0 0 0 0 0 0 0 0 0 1 0
0 0 0 0 0 0 0 0 0 0 0 0 0 0 0 0 0 0 0 0 0 0 0 0 0 0 0 0 0 0 0 0 0 0 0 0 0 0 0 0 0 0 0 0
0 0 0 0 0 0 0 0 0 0 0 0 0 0 0 0 0 0 0 0 0 0 0 0 0 0 0 0 0 0 0 0 0 0 0 0 0 0 0 0 0 0 0 0
0 0 0 0 0 0 0 0 0 0 0 0 0 0 0 0 0 0 0 0 0 0 0 0 0 0 0 0 0 0 0 0 0 0 0 0 0 0 0 0 0 0 0 0
0 0 0 0 0 0 0 0 0 0 0 0 0 0 0 0 0 0 0 0 0 0 0 0 0 0 0 0 0 0 0 0 0 0 0 0 0 0 0 0 0 0 0 0
CIN
-0 -0 -0 -0 -0 -0 -0 -0 -0 -0 -0 -0 -0 -0 -0 -0 -0 -0 -0 -0 -0 -0 -0 -0 -0 -0 -0 -0 -0 -0 -0 -0 -0 -0 -0 -0 -0 -0 -0 -0 -0 -0 -0 -0
-0 -0 -0 -0 -0 -0 -0 -0 -0 -0 -0 -0 -0 -0 -0 -0 -0 -0 -0 -0 -0 -0 -0 -0 -0 -0 -0 -0 -0 -0 -0 -0 -0 -0 -0 -0 -0 -0 -0 -0 -0 -0 -0 -0
-0 -0 -0 -0 -0 -0 -0 -0 -0 -0 -0 -0 -0 -0 -0 -0 -0 -0 -0 -0 -0 -0 -0 -0 -0 -0 -0 -0 -0 -0 -0 -0 -0 -0 -0 -0 -0 -0 -0 -0 -0 -0 -0 -0
-0 -0 -0 -0 -0 -0 -0 -0 -0 -0 -0 -0 -0 -0 -0 -0 -0 -0 -0 -0 -0 -0 -0 -0 -0 -0 -0 -0 -0 -0 -0 -0 -0 -0 -0 -0 -0 -0 -0 -0 -0 -0 -0 -0
-0 -0 -0 -0 -0 -0 -0 -0 -0 -0 -0 -0 -0 -0 -0 -0 -0 -0 -0 -0 -0 -0 -0 -0 -0 -0 -0 -0 -0 -0 -0 -0 -0 -0 -0 -0 -0 -0 -0 -0 -0 -0 -0 -0
-0 -0 -0 -0 -0 -0 -0 -0 -0 -0 -0 -0 -0 -0 -0 -0 -0 -0 -0 -0 -0 -0 -0 -0 -0 -0 -0 -0 -0 -0 -0 -0 -0 -0 -0 -0 -0 -0 -0 -0 -0 -0 -0 -0
-0 -0 -0 -0 -0 -0 -0 -0 -0 -0 -0 -0 -0 -0 -0 -0 -0 -0 -0 -0 -0 -0 -0 -0 -0 -0 -0 -0 -0 -0 -0 -0 -0 -0 -0 -0 -0 -0 -0 -0 -0 -0 -0 -1
-0 -0 -0 -0 -0 -0 -0 -0 -0 -0 -0 -0 -0 -0 -0 -0 -0 -0 -0 -0 -0 -0 -0 -0 -0 -0 -0 -0 -0 -0 -0 -0 -0 -0 -0 -0 -0 -0 -0 -0 -0 -0 -1 -1
-0 -0 -0 -0 -0 -0 -0 -0 -0 -0 -0 -0 -0 -0 -0 -0 -0 -0 -0 -0 -0 -0 -0 -0 -0 -0 -0 -0 -0 -0 -0 -0 -0 -0 -0 -0 -0 -0 -0 -0 -0 -0 -0 -0
-0 -0 -0 -0 -0 -0 -0 -0 -0 -0 -0 -0 -0 -0 -0 -0 -0 -0 -0 -0 -0 -0 -0 -0 -0 -0 -0 -0 -0 -0 -0 -0 -0 -0 -0 -0 -0 -0 -0 -0 -0 -0 -0 -0
-0 -0 -0 -0 -0 -0 -0 -0 -0 -0 -0 -0 -0 -0 -0 -0 -0 -0 -0 -0 -0 -0 -0 -0 -0 -0 -0 -0 -0 -0 -0 -0 -0 -0 -0 -0 -0 -0 -0 -0 -0 -0 -0 -2
-0 -0 -0 -0 -0 -0 -0 -0 -0 -0 -0 -0 -0 -0 -0 -0 -0 -0 -0 -0 -0 -0 -0 -0 -0 -0 -0 -0 -0 -0 -0 -0 -0 -0 -0 -0 -0 -0 -0 -0 -0 -0 -0 -0
-0 -0 -0 -0 -0 -0 -0 -0 -0 -0 -0 -0 -0 -0 -0 -0 -0 -0 -0 -0 -0 -0 -0 -0 -0 -0 -0 -0 -0 -0 -0 -0 -0 -0 -0 -0 -0 -0 -0 -0 -0 -0 -0 -0
-0 -0 -0 -0 -0 -0 -0 -0 -0 -0 -0 -0 -0 -0 -0 -0 -0 -0 -0 -0 -0 -0 -0 -0 -0 -0 -0 -0 -0 -0 -0 -0 -0 -0 -0 -0 -0 -0 -0 -0 -0 -0 -0 -0
-0 -0 -0 -0 -0 -0 -0 -0 -0 -0 -0 -0 -0 -0 -0 -0 -0 -0 -0 -0 -0 -0 -0 -0 -0 -0 -0 -0 -0 -0 -0 -0 -0 -0 -0 -0 -0 -0 -0 -0 -0 -0 -0 -0
-0 -0 -0 -0 -0 -0 -0 -0 -0 -0 -0 -0 -0 -0 -0 -0 -0 -0 -0 -0 -0 -0 -0 -0 -0 -0 -0 -0 -0 -0 -0 -0 -0 -0 -0 -0 -0 -0 -0 -0 -0 -0 -0 -0
-0 -0 -0 -0 -0 -0 -0 -0 -0 -0 -0 -0 -0 -0 -0 -0 -0 -0 -0 -0 -0 -0 -0 -0 -0 -0 -0 -0 -0 -0 -0 -0 -0 -0 -0 -0 -0 -0 -0 -0 -0 -0 -0 -0
-0 -0 -0 -0 -0 -0 -0 -0 -0 -0 -0 -0 -0 -0 -0 -0 -0 -0 -0 -0 -0 -0 -0 -0 -0 -0 -0 -0 -0 -0 -0 -0 -0 -0 -0 -0 -0 -0 -0 -0 -0 -0 -0 -0
-0 -0 -0 -0 -0 -0 -0 -0 -0 -0 -0 -0 -0 -0 -0 -0 -0 -0 -0 -0 -0 -0 -0 -0 -0 -0 -0 -0 -0 -0 -0 -0 -0 -0 -0 -0 -0 -0 -0 -0 -0 -0 -0 -0
-0 -0 -0 -0 -0 -0 -0 -0 -0 -0 -0 -0 -0 -0 -0 -0 -0 -0 -0 -0 -0 -0 -0 -0 -0 -0 -0 -0 -0 -0 -0 -0 -0 -0 -0 -0 -0 -0 -0 -0 -0 -0 -0 -0
-0 -0 -0 -0 -0 -0 -0 -0 -0 -0 -0 -0 -0 -0 -0 -0 -0 -0 -0 -0 -0 -0 -0 -0 -0 -0 -0 -0 -0 -0 -0 -0 -0 -0 -0 -0 -0 -0 -0 -0 -0 -0 -0 -0
-0 -0 -0 -0 -0 -0 -0 -0 -0 -0 -0 -0 -0 -0 -0 -0 -0 -0 -0 -0 -0 -0 -0 -0 -0 -0 -0 -0 -0 -0 -0 -0 -0 -0 -0 -0 -0 -0 -0 -0 -0 -0 -0 -0
-0 -0 -0 -0 -0 -0 -0 -0 -0 -0 -0 -0 -0 -0 -0 -0 -0 -0 -0 -0 -0 -0 -0 -0 -0 -0 -0 -0 -0 -0 -0 -0 -0 -0 -0 -0 -0 -0 -0 -0 -0 -0 -0 -0
-0 -0 -0 -0 -0 -0 -0 -0 -0 -0 -0 -0 -0 -0 -0 -0 -0 -0 -0 -0 -0 -0 -0 -0 -0 -0 -0 -0 -0 -0 -0 -0 -0 -0 -0 -0 -0 -0 -0 -0 -0 -0 -0 -0
-0 -0 -0 -0 -0 -0 -0 -0 -0 -0 -0 -0 -0 -0 -0 -0 -0 -0 -0 -0 -0 -0 -0 -0 -0 -0 -0 -0 -0 -0 -0 -0 -0 -0 -0 -0 -0 -0 -0 -0 -0 -0 -0 -0
-0 -0 -0 -0 -0 -0 -0 -0 -0 -0 -0 -0 -0 -0 -0 -0 -0 -0 -0 -0 -0 -0 -0 -0 -0 -0 -0 -0 -0 -0 -0 -0 -0 -0 -0 -0 -0 -0 -0 -0 -0 -0 -0 -0
Wind_Speed
15 15 15 15 17 17 19 22 23 23 21 28 20 19 25 30 26 22 21 22 19 18 19 22 28 33 37 39 43 46 49 49 49 52 54 55 56 54 53 53 52 52 52 51
15 16 13 14 17 18 20 22 22 22 20 30 27 21 28 22 20 20 20 20 20 22 25 29 34 37 41 44 48 51 49 50 51 51 52 54 56 57 57 55 56 56 56 55
16 16 12 15 17 21 21 19 22 24 29 23 27 23 18 21 19 19 20 20 21 25 28 33 35 39 41 44 47 49 49 52 52 51 52 53 53 54 54 53 54 54 54 55
16 14 14 15 18 18 23 17 24 27 27 21 27 24 22 20 19 19 19 18 23 30 32 30 34 41 43 45 49 48 50 51 46 45 48 50 53 56 54 54 52 53 51 52
16 14 16 17 17 16 21 23 25 24 22 24 21 24 24 21 19 15 14 15 25 31 28 33 33 35 42 43 45 41 41 41 40 40 42 47 53 52 52 51 53 52 52 51
15 16 17 17 17 18 22 22 23 22 21 22 21 24 25 19 18 15 10 12 23 30 34 32 32 33 36 37 35 37 37 37 37 38 38 41 48 52 54 53 53 53 51 53
17 17 17 16 18 19 21 23 26 24 23 23 22 23 19 17 12 13 12 18 31 34 34 37 37 38 36 36 32 35 36 38 39 41 41 41 43 48 53 54 52 52 51 48
17 20 14 15 18 19 21 19 21 27 27 27 23 19 22 18 14 13 17 25 31 36 36 34 36 38 37 34 32 33 37 37 38 41 40 42 38 42 47 50 51 50 50 49
15 18 15 16 16 17 18 19 17 20 22 23 20 21 20 14 9 14 19 30 40 44 35 36 35 37 37 34 32 32 35 34 35 36 37 40 37 38 43 46 47 47 46 47
17 19 18 15 15 18 17 14 18 20 24 29 22 24 20 19 18 16 22 38 44 35 33 35 37 38 36 34 31 31 32 30 30 31 31 33 36 34 33 36 42 44 43 43
15 18 18 16 15 13 15 15 17 18 18 22 27 25 15 17 17 17 21 39 37 35 33 34 37 39 37 33 32 31 31 26 26 23 28 26 21 32 24 21 31 38 40 40
15 17 19 20 17 15 16 15 13 17 19 18 22 23 15 15 16 17 25 37 34 32 32 35 37 42 40 35 33 32 30 25 24 23 22 17 13 17 10 12 17 36 38 37
14 19 20 21 19 19 16 14 13 16 18 15 21 20 17 18 16 18 26 33 31 32 34 37 41 43 42 37 33 33 28 23 23 22 21 16 15 9 13 31 29 31 33 34
14 19 20 23 22 18 19 15 11 11 16 17 14 17 14 14 16 18 21 26 28 30 32 37 39 42 41 36 33 32 26 20 19 16 16 14 15 16 6 1 22 19 20 22
18 25 23 25 27 25 22 20 13 11 11 15 18 15 14 14 15 16 19 25 27 30 32 35 36 39 39 36 34 30 24 18 14 16 19 18 17 24 20 12 13 14 12 11
19 24 24 29 27 26 29 20 15 12 12 14 14 17 16 12 13 17 19 22 22 26 28 29 32 35 37 36 35 29 20 20 15 18 20 20 18 17 22 14 13 13 11 9
19 19 22 28 26 33 37 26 9 10 11 8 13 10 11 14 17 19 20 20 20 22 25 28 31 32 34 35 35 29 19 16 15 22 20 22 22 16 7 6 7 9 10 10
18 17 21 29 30 22 23 17 12 10 15 6 9 7 9 12 16 13 14 16 16 19 21 25 27 29 31 33 35 30 26 19 25 25 19 19 15 19 11 13 7 2 2 7
19 17 22 24 23 34 33 20 17 12 24 8 5 5 11 18 18 17 11 11 13 15 16 19 22 24 27 31 33 34 34 29 28 32 24 12 16 18 9 4 9 10 13 5
19 20 21 23 25 25 22 14 15 17 30 13 7 11 15 19 23 21 14 11 12 12 14 16 19 22 26 29 30 34 37 37 38 27 15 26 9 9 10 16 13 5 6 13
21 23 21 25 26 37 22 16 13 20 21 18 13 12 16 15 15 18 14 12 11 11 13 15 17 20 23 25 27 32 34 36 33 34 32 21 10 9 10 9 11 13 12 9
20 17 21 22 25 39 13 12 15 18 20 22 19 16 15 14 13 13 12 11 10 10 12 13 16 18 21 23 25 28 31 29 30 33 29 20 23 17 21 26 15 10 10 13
27 22 23 16 21 22 8 17 10 22 26 26 23 21 15 13 10 9 8 9 8 7 9 11 13 16 18 20 22 24 25 26 27 30 31 28 22 9 12 20 21 19 11 13
26 21 26 25 28 28 24 20 23 21 23 24 19 19 15 12 9 7 6 7 6 5 6 8 9 11 14 16 18 19 20 22 24 27 28 28 28 21 18 20 17 15 12 11
24 15 24 30 35 39 38 22 20 13 23 16 13 11 8 8 8 5 4 4 2 2 3 4 4 6 8 11 12 15 16 18 20 22 23 25 25 25 22 5 1 5 13 17
23 25 25 33 28 27 33 28 28 27 29 25 18 15 8 6 6 4 4 2 0 1 3 4 5 7 7 7 8 10 12 14 16 17 18 20 21 22 23 24 25 17 19 19
Wind_Direction
319 317 314 321 323 324 326 323 323 330 337 332 343 331 328 328 334 343 349 349 355 351 347 341 333 328 325 321 317 314 310 308 306 301 298 296 291 289 284 280 277 274 272 271
311 309 319 322 319 324 325 323 329 334 342 332 336 335 329 336 342 347 352 354 353 344 339 334 331 329 326 323 318 313 312 311 307 303 300 296 292 288 284 281 277 274 271 268
303 309 320 318 319 315 326 331 334 335 333 340 340 346 349 344 345 349 352 352 348 342 337 335 335 332 330 327 323 319 315 312 308 305 302 297 293 289 285 282 278 274 270 267
303 305 311 319 317 325 320 339 334 331 335 345 345 344 344 340 339 340 344 350 344 335 338 343 339 334 332 329 325 321 318 315 313 309 303 299 293 288 285 283 281 276 271 266
300 302 306 314 317 330 326 331 332 337 341 343 349 347 348 347 339 339 347 354 342 341 347 343 342 339 335 334 332 330 328 325 322 317 310 303 294 290 288 285 280 277 271 267
304 307 306 310 318 324 326 335 339 343 346 346 352 352 350 355 355 6 14 3 351 347 345 347 345 343 340 340 340 336 333 330 326 323 318 310 301 293 288 285 280 276 273 267
299 301 308 313 316 324 328 332 332 338 344 346 354 351 354 2 11 11 6 354 343 346 348 348 348 347 345 343 343 340 337 332 328 322 318 314 308 298 288 283 280 276 271 266
293 295 304 315 317 322 328 339 340 332 339 342 350 356 2 8 11 8 359 347 347 346 350 351 351 350 347 346 345 344 340 335 332 326 321 316 314 304 294 285 279 276 270 266
296 298 310 318 325 329 333 337 351 347 349 348 356 354 348 3 357 356 352 342 338 341 353 353 353 353 352 349 347 345 343 341 337 333 329 323 319 311 300 289 280 275 271 265
295 298 305 317 327 330 331 351 345 348 345 342 350 351 358 5 5 358 350 336 337 351 355 355 355 356 357 355 352 350 348 345 343 341 339 333 327 323 313 297 282 272 270 265
300 300 306 314 317 325 332 337 343 349 352 349 347 352 5 1 1 358 354 344 347 352 355 357 357 358 0 360 359 357 355 354 354 350 348 345 338 336 330 317 293 274 267 263
296 307 302 306 320 331 328 331 340 342 346 348 347 344 9 5 5 358 351 347 349 355 357 358 360 360 2 3 2 3 4 4 3 0 359 354 341 290 344 331 313 271 263 261
295 298 301 306 315 316 320 324 328 337 343 338 343 348 10 7 1 353 346 347 353 355 357 358 360 1 4 6 7 8 10 9 9 8 9 8 11 1 19 307 286 263 259 256
297 295 297 301 310 323 317 321 318 323 329 333 317 309 312 322 328 332 345 351 354 357 359 359 2 3 7 10 12 13 17 16 17 11 17 18 25 31 31 145 313 290 275 262
292 288 298 300 300 307 309 312 303 285 295 316 324 326 307 318 330 337 350 354 354 357 -0 2 5 7 11 14 16 20 24 22 11 21 27 30 35 30 316 303 303 306 307 285
293 294 300 298 303 304 304 308 294 273 289 264 275 284 285 296 344 355 356 357 358 0 4 7 9 12 14 18 19 25 29 31 27 32 38 42 47 55 326 309 315 321 320 304
289 296 300 298 305 298 294 311 307 320 325 308 327 322 350 348 352 352 354 357 360 4 6 8 10 14 17 21 22 30 36 37 42 45 46 50 55 71 69 308 309 307 311 320
287 294 300 296 302 303 312 327 326 319 329 289 318 297 334 339 351 349 354 360 4 7 9 11 14 18 22 24 24 33 39 50 51 53 54 59 65 78 91 106 116 69 177 323
285 290 297 297 297 295 297 313 317 322 323 317 276 292 347 357 -0 357 7 10 11 14 18 18 20 23 25 26 28 30 33 41 48 47 53 9 73 82 93 74 114 123 124 98
285 290 288 291 296 302 313 329 331 334 317 347 3 353 356 1 357 1 15 19 16 21 24 25 25 27 26 28 32 31 31 31 19 59 73 35 19 59 46 93 104 99 82 125
282 286 276 282 290 285 304 313 329 319 327 343 352 356 357 356 358 7 16 14 16 20 22 23 25 27 27 32 34 31 34 33 47 24 19 7 17 75 88 58 87 102 103 91
279 283 287 283 287 282 317 314 301 325 331 336 344 346 345 346 358 2 5 7 11 19 21 23 21 24 27 31 34 34 33 47 51 44 20 9 18 18 24 34 35 57 74 58
276 280 288 277 290 305 316 308 295 322 320 327 335 340 343 342 341 348 351 359 6 16 19 25 24 23 24 31 36 37 43 50 57 52 39 31 19 9 11 23 27 29 33 37
276 277 290 292 291 288 294 297 297 311 308 322 328 332 334 328 332 327 336 352 1 13 20 30 29 29 29 35 39 45 55 55 60 57 60 46 43 22 15 21 17 19 20 24
276 281 289 290 286 286 286 298 303 304 313 318 322 319 309 318 316 307 305 335 347 21 59 66 66 62 62 56 56 54 60 68 62 63 67 71 61 48 38 342 218 159 142 134
270 280 284 290 297 295 293 306 310 312 310 318 326 327 316 305 297 298 263 291 213 151 140 142 144 147 141 106 90 85 87 94 90 86 91 92 92 99 95 91 90 133 130 131